Zurück zum Katalog

STARLINK-36100

AktivKommunikationVLEO
NORAD 66942·PAYLOAD·🇺🇸 United States

Gestartet Dec 7, 2025 von Vandenberg Space Force Base

Loading…

Nächste Überflüge (nächste 24 Stunden)

TLE

AktuellSource: CelesTrak SupGP

Epoche: Sep 15, 2026, 02:48 UTC

1 66942C 25286T   26258.11715278 -.00057633  00000+0 -17027-2 0  2587
2 66942  53.1584 195.0053 0001324  88.1225 119.7293 15.34420274    19

Verfolge STARLINK-36100 in Echtzeit mit AllMySat

Download on the App Store